Voltar ao catálogo

STARLINK-31477

AtivoComunicaçõesVLEO
NORAD 59314·PAYLOAD·🇺🇸 United States

Lançado Mar 24, 2024 de Cape Canaveral Space Force Station

Loading…

Próximas Passagens (próximas 24 horas)

TLE

AtualizadoSource: CelesTrak SupGP

Época: Sep 14, 2026, 21:35 UTC

1 59314C 24056U   26257.89979167  .00030741  00000+0  11135-2 0  2571
2 59314  43.0019 234.6399 0001489 266.1050 263.2918 15.27561348    13

Acompanhe STARLINK-31477 em tempo real com AllMySat

Download on the App Store